STARLINK-5238, 54188

Orbit data source: Space-Track

STARLINK-5238, 54188 is a payload satellite owned by SpaceX/Seattle (US) in LEO that was launched on Fri, 28 Oct 2022 UTC via an FALCON 9 launch vehicle from the Air Force Western Test Range (AFWTR). Payload-class satellites include a variety of spacecraft equipped with specific instruments for various scientific and technological missions. These include communications satellites like Starlink; space stations such as the ISS; scientific satellites like the Hubble; Earth observation satellites from companies like Planet Labs, Umbra, and HawkEye 360; GPS; miniature CubeSats for education and research; and military/defense satellites.

Loading next visibility...
Identifier
54188, 2022-141AH
Orbit
LEO
Country
Flag of USUS
Related business
Manufacturer
SpaceX/Seattle
Mission
Operational Commercial Communications
Bus & Motor
STARLINK, Unknown motor
Mass
305 kg wet, ~290 kg dry
Launch date (UTC)
2022-10-28 (4 years ago)
Launch vehicle
FALCON 9
Launch site
Air Force Western Test Range (AFWTR)
Object type
Payload
Rocket body
Debris
Shape & HBR
Box + 1 Pan, 10.1 m
Radar Cross Section
13.562 m², Large (>1 m²)

Expand to show TLE details & history
Last TLE update: 2 days ago

TLE from 2 days ago
0 STARLINK-5238
1 54188U 22141AH  26171.48111675  .00000658  00000-0  59418-4 0  9996
2 54188  53.1598 252.7138 0000999  88.9411 271.1695 15.08833113201518
Epoch: 2026-06-20T11:32Z
TLE epoch observation values (Epoch: 2026-06-20T11:32:48.487Z)
Latitude
Longitude
170.81665°
Altitude
540.642 km
Speed
7.593 km/s
True Right ascension
16h 50m 51s
True Declination
0° 00' 00"
Sunlit
Object was in full shadow at epoch
Visualization orbit readout
Latitude
Unknown
Longitude
Unknown
Altitude
Unknown
Speed
Unknown
Apparent Right ascension
Unknown
Apparent Declination
Unknown
Sunlit
N/A
Visualization observer readout
Local Sidereal Time
21:49:34
Azimuth
Unknown
Elevation
Unknown
Doppler factor
Unknown
Orbital elements
Apogee altitude
540.71 km
Perigee altitude
539.327 km
Semi-major axis
6,918.156 km
Eccentricity
0.0001
Inclination
53.1598°
RAAN
252.7138°
Arg. of periapsis
88.9411°
True anomaly
271.15805°
Mean anomaly
271.1695°
Eccentric anomaly
271.16378°
Mean motion
3.77188 °/min
Orbital period
95.44 mins
BSTAR
0.000059418
Loading maneuver chart data...
Computing Atmospheric mass density...

Documentation

Showing up to 5 results
|